Regional Weather Roundup
Issued by NWS State College, PA

Home | Current Version | Previous Version | Text Only | Print | Product List | Glossary Off
Versions: 1 2 3 4 5 6 7 8 9 10 11 12 13 14 15 16 17 18 19 20 21 22 23 24 25 26 27 28 29 30 31 32 33 34 35 36 37 38 39 40 41 42 43 44 45 46 47 48 49 50

000
ASUS41 KCTP 191410
RWRCTP

REGIONAL WEATHER ROUNDUP
NATIONAL WEATHER SERVICE STATE COLLEGE PA
1000 AM EDT FRI SEP 19 2014

Note: "fair" indicates few or no clouds below 12,000 feet with no
significant weather and/or obstructions to visibility.

* = STATION THAT DOES NOT REPORT PRECIPITATION /E.G. RAIN...SNOW...ETC/
    THUNDER OR FOG.

PAZ002>004-007>009-013>016-020>023-029>032-191500-
WESTERN PENNSYLVANIA

CITY           SKY/WX    TMP DP  RH WIND       PRES   REMARKS
ERIE           SUNNY     55  45  68 S6        30.28R
MEADVILLE      MOSUNNY   50  46  86 E7        30.28R
FRANKLIN*      MOSUNNY   50  45  81 E7        30.28F
NEW CASTLE     NOT AVBL
BEAVER COUNTY  SUNNY     57  48  72 E3        30.25S
BUTLER*        SUNNY     55  48  76 NE12      30.26F
PITTSBURGH INT MOSUNNY   56  50  80 E7        30.23S
PITTSBURGH     SUNNY     57  48  72 NE6       30.23S
INDIANA*       SUNNY     55  50  82 E7        30.30S
LATROBE        MOSUNNY   55  54  94 NE7       30.25S
WASHINGTON CO* SUNNY     57  52  82 E6        30.23S
$$

PAZ004>006-010>012-017>019-024>028-033>037-041-042-045-046-049>053-191500-
CENTRAL PENNSYLVANIA

CITY           SKY/WX    TMP DP  RH WIND       PRES   REMARKS
BRADFORD       CLOUDY    45  41  86 SE7       30.30R
DUBOIS         PTSUNNY   50  47  89 E7        30.27S
CLEARFIELD     CLOUDY    49  46  90 NE7       30.30S
JOHNSTOWN      SUNNY     54  48  80 E5        30.26S
ALTOONA        SUNNY     56  49  77 VRB6      30.29S
STATE COLLEGE  PTSUNNY   50  46  87 NE6       30.30S
WILLIAMSPORT   SUNNY     55  42  61 CALM      30.32R
SELINSGROVE    SUNNY     58  46  64 N5        30.32R
FT INDIANTOWN  SUNNY     59  46  63 NE6       30.31R
CAPITAL CITY   SUNNY     60  47  61 E9        30.30R
HARRISBURG     PTSUNNY   61  48  62 E6        30.30R
YORK           SUNNY     61  50  67 NE9       30.29S
$$

PAZ038>040-043-044-047-048-054-055-060>062-067>071-191500-
EASTERN PENNSYLVANIA

CITY           SKY/WX    TMP DP  RH WIND       PRES   REMARKS
SCRANTON       SUNNY     54  42  64 VRB3      30.32R
MOUNT POCONO   CLOUDY    47  43  86 E8        30.32R
ALLENTOWN      SUNNY     58  45  62 NE10      30.33R
QUAKERTOWN*    SUNNY     57  46  67 NE8       30.32R
READING        SUNNY     59  48  67 NE6       30.30R
LANCASTER      SUNNY     60  48  64 E9        30.30R
COATESVILLE    SUNNY     57  50  77 NE7       30.30R
POTTSTOWN      SUNNY     59  48  67 NE8       30.32R
BLUE BELL      CLOUDY    61  52  72 E9G17     30.30R
DOYLESTOWN     MOSUNNY   58  49  72 NE9       30.31R
WILLOW GROVE   NOT AVBL
NORTH PHILA    MOSUNNY   63  49  60 NE15      30.32R
PHILADELPHIA   PTSUNNY   63  51  65 NE15      30.30R
$$



USA.gov is the U.S. government's official web portal to all federal, state and local government web resources and services.